Terminal Aerodrome Forecast
Issued by NWS Billings, MT

Home | Current Version | Previous Version | Graphics & Text | Print | Product List | Glossary On
Versions: 1 2 3 4 5 6 7 8 9 10 11 12 13
000
FTUS45 KBYZ 142331
TAFMLS
TAF
KMLS 142331Z 1500/1524 VRB06KT P6SM SCT080 SCT200
     FM150800 27012G20KT P6SM SCT200
     FM152200 27015G30KT P6SM FEW100 BKN200=

USA.gov is the U.S. government's official web portal to all federal, state and local government web resources and services.